Precipitable_Water
0.60 0.61 0.60 0.64 0.67 0.70 0.73 0.77 1.03 1.43 1.54 1.52 1.69 1.62 1.60 1.56 1.56 1.56 1.60 1.53 1.49 1.50 1.31 1.32 1.50 1.52 1.53 1.39 1.25 1.10 0.97 0.89 0.90 0.89 0.87 0.85 0.83 0.77 0.72 0.80 0.79 0.72 0.73
0.58 0.59 0.62 0.63 0.66 0.67 0.70 0.80 0.81 0.87 1.26 1.48 1.50 1.56 1.56 1.54 1.55 1.57 1.58 1.61 1.54 1.46 1.34 1.38 1.39 1.58 1.53 1.49 1.36 1.23 1.18 1.10 0.96 0.90 0.85 0.82 0.76 0.72 0.70 0.74 0.75 0.72 0.72
0.59 0.58 0.61 0.63 0.64 0.63 0.67 0.73 0.83 0.88 0.84 1.12 1.35 1.44 1.54 1.58 1.47 1.54 1.45 1.47 1.45 1.41 1.36 1.48 1.39 1.44 1.54 1.53 1.44 1.34 1.32 1.26 1.16 1.03 0.86 0.82 0.74 0.71 0.71 0.75 0.71 0.69 0.71
0.57 0.57 0.59 0.60 0.62 0.61 0.64 0.68 0.72 0.74 0.80 0.81 0.89 1.09 1.30 1.33 1.39 1.32 1.29 1.29 1.33 1.41 1.38 1.42 1.43 1.39 1.41 1.51 1.62 1.50 1.43 1.36 1.25 1.12 1.03 0.88 0.74 0.73 0.72 0.72 0.71 0.68 0.67
0.55 0.55 0.57 0.58 0.59 0.59 0.60 0.65 0.62 0.70 0.71 0.78 0.84 0.88 0.96 1.13 1.35 1.26 1.23 1.28 1.19 1.21 1.35 1.35 1.38 1.39 1.35 1.32 1.48 1.60 1.59 1.43 1.33 1.24 1.10 0.95 0.85 0.80 0.78 0.75 0.68 0.68 0.67
0.59 0.58 0.56 0.57 0.61 0.60 0.57 0.55 0.53 0.59 0.68 0.74 0.77 0.80 0.89 0.98 1.06 1.10 1.17 1.12 1.10 1.11 1.24 1.35 1.24 1.34 1.36 1.34 1.36 1.53 1.60 1.54 1.41 1.32 1.20 1.06 0.97 0.89 0.83 0.78 0.75 0.72 0.69
0.59 0.59 0.60 0.58 0.57 0.59 0.59 0.60 0.58 0.53 0.54 0.68 0.69 0.72 0.76 0.82 0.94 0.99 1.03 1.06 1.08 1.14 1.13 1.28 1.31 1.30 1.39 1.34 1.32 1.40 1.54 1.55 1.46 1.36 1.28 1.21 1.12 1.08 1.00 0.89 0.79 0.73 0.70
0.49 0.48 0.50 0.52 0.55 0.54 0.53 0.61 0.58 0.55 0.52 0.60 0.63 0.64 0.53 0.64 0.75 0.88 0.98 0.97 1.06 1.13 1.12 1.22 1.30 1.35 1.42 1.38 1.34 1.32 1.41 1.52 1.54 1.42 1.31 1.26 1.24 1.20 1.15 1.12 1.03 0.95 0.86
0.48 0.46 0.48 0.48 0.48 0.50 0.52 0.54 0.61 0.57 0.51 0.52 0.60 0.64 0.55 0.51 0.64 0.80 0.92 0.96 1.05 1.09 1.15 1.19 1.25 1.35 1.38 1.40 1.43 1.40 1.36 1.42 1.52 1.44 1.36 1.26 1.24 1.23 1.20 1.15 1.03 0.99 0.98
0.45 0.45 0.44 0.44 0.47 0.47 0.48 0.49 0.55 0.59 0.56 0.50 0.54 0.62 0.73 0.74 0.63 0.60 0.81 0.86 1.04 1.07 1.08 1.15 1.21 1.28 1.34 1.38 1.39 1.43 1.38 1.37 1.44 1.50 1.39 1.35 1.28 1.25 1.21 1.17 1.11 1.07 1.04
0.41 0.40 0.39 0.38 0.42 0.45 0.44 0.47 0.51 0.52 0.56 0.53 0.58 0.52 0.56 0.68 0.75 0.68 0.60 0.74 0.92 0.94 1.04 1.10 1.10 1.17 1.21 1.25 1.33 1.38 1.42 1.44 1.42 1.44 1.45 1.35 1.30 1.27 1.24 1.18 1.15 1.14 1.13
0.36 0.37 0.37 0.36 0.37 0.38 0.40 0.42 0.48 0.50 0.49 0.49 0.57 0.59 0.54 0.55 0.63 0.68 0.66 0.66 0.71 0.81 0.92 0.99 1.02 1.02 1.14 1.15 1.21 1.30 1.38 1.39 1.42 1.43 1.45 1.37 1.37 1.33 1.26 1.21 1.19 1.18 1.19
0.30 0.32 0.34 0.35 0.35 0.36 0.37 0.38 0.38 0.43 0.48 0.47 0.48 0.55 0.60 0.59 0.65 0.72 0.72 0.68 0.65 0.73 0.83 0.89 0.92 0.98 1.02 1.07 1.15 1.19 1.26 1.35 1.37 1.40 1.44 1.41 1.41 1.35 1.30 1.25 1.21 1.20 1.21
0.29 0.31 0.32 0.34 0.34 0.34 0.36 0.37 0.36 0.38 0.45 0.47 0.46 0.48 0.57 0.62 0.64 0.68 0.74 0.73 0.62 0.67 0.75 0.74 0.85 0.88 0.92 0.98 1.00 1.10 1.18 1.22 1.31 1.30 1.38 1.42 1.41 1.36 1.31 1.26 1.25 1.24 1.22
0.30 0.31 0.32 0.33 0.34 0.34 0.35 0.36 0.36 0.36 0.40 0.43 0.45 0.45 0.47 0.54 0.64 0.66 0.72 0.77 0.71 0.57 0.60 0.73 0.72 0.84 0.84 0.90 0.91 0.98 1.04 1.16 1.19 1.24 1.35 1.31 1.38 1.39 1.28 1.25 1.23 1.24 1.20
0.31 0.31 0.32 0.33 0.33 0.34 0.34 0.34 0.34 0.37 0.37 0.40 0.43 0.43 0.42 0.48 0.58 0.65 0.65 0.69 0.75 0.71 0.60 0.74 0.77 0.81 0.83 0.85 0.87 0.90 0.91 1.00 1.07 1.10 1.13 1.23 1.31 1.37 1.30 1.27 1.24 1.21 1.16
0.31 0.31 0.32 0.33 0.34 0.33 0.33 0.33 0.33 0.35 0.36 0.37 0.38 0.40 0.38 0.42 0.49 0.58 0.64 0.64 0.64 0.72 0.63 0.77 0.80 0.81 0.76 0.77 0.80 0.87 0.89 0.88 0.92 0.95 1.00 1.04 1.18 1.26 1.26 1.25 1.19 1.14 1.12
0.30 0.31 0.32 0.33 0.33 0.34 0.34 0.33 0.32 0.34 0.34 0.35 0.35 0.37 0.35 0.37 0.39 0.48 0.56 0.59 0.61 0.66 0.65 0.63 0.77 0.75 0.74 0.75 0.74 0.78 0.82 0.85 0.85 0.90 0.93 0.98 1.08 1.13 1.17 1.13 1.13 1.10 1.07
0.30 0.30 0.31 0.31 0.31 0.32 0.33 0.33 0.33 0.32 0.33 0.34 0.34 0.33 0.36 0.34 0.34 0.38 0.44 0.54 0.61 0.63 0.63 0.62 0.68 0.76 0.73 0.72 0.68 0.73 0.77 0.79 0.81 0.85 0.87 0.95 1.00 1.06 1.09 1.10 1.08 1.04 1.03
0.30 0.30 0.30 0.30 0.31 0.31 0.31 0.32 0.32 0.32 0.32 0.33 0.36 0.35 0.36 0.35 0.33 0.34 0.38 0.48 0.57 0.61 0.64 0.60 0.61 0.66 0.69 0.67 0.66 0.64 0.68 0.72 0.71 0.78 0.82 0.84 0.87 0.92 0.98 1.00 0.99 0.99 0.98
0.30 0.30 0.30 0.30 0.30 0.30 0.30 0.30 0.31 0.31 0.31 0.31 0.33 0.37 0.39 0.38 0.36 0.36 0.37 0.42 0.50 0.58 0.63 0.61 0.56 0.59 0.55 0.62 0.57 0.64 0.63 0.66 0.67 0.72 0.73 0.76 0.81 0.87 0.89 0.93 0.93 0.92 0.91
0.29 0.29 0.29 0.29 0.29 0.30 0.31 0.32 0.32 0.32 0.31 0.31 0.31 0.33 0.36 0.38 0.37 0.38 0.37 0.39 0.47 0.51 0.57 0.59 0.57 0.54 0.56 0.64 0.63 0.63 0.62 0.60 0.54 0.71 0.71 0.70 0.77 0.75 0.81 0.85 0.87 0.85 0.84
0.29 0.30 0.29 0.29 0.29 0.30 0.32 0.33 0.33 0.33 0.32 0.32 0.32 0.32 0.33 0.35 0.38 0.37 0.38 0.39 0.42 0.53 0.61 0.64 0.61 0.58 0.58 0.67 0.64 0.60 0.64 0.60 0.61 0.71 0.69 0.61 0.71 0.70 0.73 0.79 0.79 0.78 0.76
0.29 0.30 0.30 0.31 0.31 0.32 0.33 0.34 0.35 0.35 0.34 0.33 0.32 0.32 0.32 0.33 0.36 0.36 0.36 0.37 0.38 0.46 0.58 0.66 0.65 0.69 0.70 0.73 0.71 0.66 0.64 0.67 0.71 0.70 0.69 0.58 0.67 0.66 0.69 0.71 0.74 0.70 0.66
0.30 0.31 0.32 0.32 0.32 0.33 0.35 0.36 0.37 0.36 0.34 0.33 0.34 0.35 0.34 0.33 0.35 0.36 0.35 0.33 0.33 0.40 0.58 0.68 0.71 0.78 0.71 0.78 0.74 0.67 0.59 0.61 0.59 0.61 0.66 0.63 0.64 0.64 0.65 0.64 0.68 0.68 0.66
0.31 0.32 0.32 0.34 0.35 0.35 0.37 0.38 0.39 0.38 0.34 0.34 0.35 0.36 0.37 0.37 0.37 0.38 0.37 0.35 0.31 0.38 0.52 0.62 0.69 0.73 0.75 0.75 0.73 0.71 0.66 0.60 0.63 0.59 0.66 0.61 0.61 0.60 0.54 0.58 0.61 0.63 0.66
Wind_Speed
28 28 28 28 29 28 29 30 30 31 28 29 32 31 32 33 32 33 32 30 30 28 28 27 27 27 26 25 24 21 20 20 20 20 20 19 18 18 17 17 16 15 15
28 28 28 28 28 28 28 28 29 29 31 28 33 31 25 27 31 32 32 32 32 31 28 29 28 29 29 28 26 24 22 21 21 21 21 21 20 19 19 18 18 17 17
29 28 28 28 29 29 28 28 28 30 31 32 33 23 27 28 27 28 28 28 23 29 34 30 31 30 30 30 29 28 26 25 24 23 23 22 22 21 21 20 19 19 18
28 28 28 28 29 30 30 29 29 29 30 31 33 34 29 30 30 30 29 24 23 26 25 30 32 32 31 31 31 30 29 28 26 25 24 24 24 23 22 22 21 21 20
28 28 28 29 29 29 30 30 30 30 30 30 30 32 32 32 30 31 31 33 31 30 29 28 27 34 33 33 34 32 32 30 29 28 27 26 25 25 24 23 23 22 22
29 29 29 30 31 31 30 31 31 32 32 31 31 31 31 32 34 35 35 33 31 31 31 30 29 29 29 35 36 35 34 33 31 30 29 28 26 26 25 25 24 24 24
32 31 31 30 31 35 34 32 32 32 32 32 32 31 31 33 34 34 33 32 30 30 33 31 31 29 28 28 33 35 35 33 32 30 31 31 29 28 26 25 25 25 25
31 30 30 30 30 31 31 36 34 34 32 32 32 32 30 30 33 33 34 33 32 30 31 31 30 30 29 29 29 32 35 36 34 31 30 30 30 29 28 27 28 28 28
34 33 32 31 30 30 31 33 34 35 34 33 34 32 30 29 29 29 30 31 31 31 32 32 32 31 30 31 29 31 32 34 36 35 31 32 32 32 31 29 28 27 27
37 36 36 35 33 32 31 31 32 34 35 35 33 35 34 34 29 27 28 27 29 29 30 33 32 33 32 33 32 31 33 34 34 37 37 36 33 31 31 30 29 28 28
36 36 36 36 35 34 33 32 32 32 34 35 35 34 36 35 35 33 32 29 28 28 29 28 30 32 32 34 35 34 33 34 35 35 36 37 36 34 33 31 29 29 28
36 36 36 36 35 35 34 33 33 33 33 34 37 36 36 35 33 34 34 33 32 31 31 31 30 31 32 31 33 35 35 35 35 38 39 38 38 36 35 34 32 31 30
35 35 35 35 35 34 34 34 34 34 34 34 35 37 37 38 38 36 34 34 33 33 32 32 31 32 31 33 32 31 34 36 37 38 38 37 40 42 38 36 34 33 31
34 34 34 34 34 34 34 34 34 34 34 34 34 35 36 37 38 38 35 32 33 33 32 32 32 31 31 33 33 33 33 34 34 33 39 37 35 40 37 35 34 33 32
31 31 31 31 32 32 32 33 33 33 34 34 35 35 36 36 37 39 39 36 32 32 33 32 30 30 31 31 32 32 33 33 35 36 38 36 38 40 42 35 33 32 31
29 29 29 29 29 30 31 31 32 32 33 34 34 35 35 35 35 37 39 39 36 32 32 31 31 30 29 29 30 31 31 31 31 32 33 34 41 41 38 40 36 32 32
28 28 28 27 27 28 29 30 30 31 32 33 34 34 34 35 36 34 36 37 39 37 34 32 32 30 30 29 29 30 31 31 31 32 32 32 34 36 37 35 35 32 31
27 26 26 27 27 27 28 28 29 30 31 32 33 34 34 34 35 36 35 35 37 37 35 33 32 31 30 30 29 28 27 28 28 30 30 30 31 34 36 37 39 35 33
27 26 26 26 27 27 28 29 29 30 31 32 32 33 35 35 35 35 35 35 35 36 37 36 31 31 30 29 29 29 28 28 26 26 26 28 29 30 31 32 35 34 32
29 29 28 28 28 28 28 29 30 30 31 31 33 33 34 35 35 35 35 35 34 34 35 35 35 32 30 29 29 28 27 27 25 26 25 25 26 28 30 32 34 35 35
32 31 31 31 30 29 29 29 29 31 31 31 32 33 34 35 36 35 35 36 34 34 32 34 33 33 31 29 29 29 28 27 25 26 25 25 25 27 29 30 31 32 32
33 33 33 33 32 31 31 31 31 31 31 32 32 33 34 35 36 37 37 38 38 36 35 32 34 33 32 30 29 29 29 28 26 26 25 25 26 26 27 29 30 31 31
35 34 34 33 33 32 32 32 31 31 31 32 33 33 33 33 35 36 37 37 37 38 39 37 33 33 32 31 30 30 31 30 28 28 26 26 27 26 26 26 27 28 28
35 34 33 32 30 29 30 31 32 32 32 33 33 34 35 35 35 35 35 36 37 37 38 38 38 34 34 34 33 32 32 30 29 29 27 26 28 26 26 27 27 27 27
34 33 31 29 28 27 28 29 30 31 32 32 33 33 34 35 35 36 36 36 36 37 37 37 36 35 35 32 32 30 31 31 29 30 29 27 28 26 26 26 26 26 25
32 30 29 28 28 27 27 27 27 27 29 30 31 32 33 34 35 36 36 36 36 35 34 34 34 34 34 33 32 32 33 34 30 29 29 27 26 26 24 24 23 24 23
Wind_Direction
280 277 274 272 271 269 267 265 262 255 254 251 246 240 238 240 241 242 244 244 244 247 241 238 231 230 230 229 229 230 230 226 225 225 227 229 229 230 229 228 230 232 230
281 277 273 271 270 270 267 264 261 258 253 255 255 251 249 241 241 242 245 244 248 243 239 236 233 230 231 230 229 231 230 229 229 229 230 232 232 232 231 232 233 233 233
282 279 273 270 269 270 266 264 261 258 257 255 254 255 249 250 248 235 238 239 251 243 240 237 233 232 232 231 232 232 233 232 232 233 234 233 233 233 233 233 235 235 236
284 280 275 271 270 268 265 262 261 260 258 255 255 254 257 251 242 241 238 232 249 246 240 236 233 233 233 234 233 234 233 234 235 236 236 235 235 235 235 235 237 238 238
285 281 277 273 271 267 264 262 261 259 258 256 255 254 253 248 241 239 243 249 257 245 240 238 236 235 236 236 234 235 234 235 236 238 237 236 236 236 237 237 239 240 242
287 282 280 276 269 267 265 263 260 258 256 256 255 254 251 249 247 246 247 251 247 243 240 239 237 236 237 236 236 235 236 235 237 237 237 236 235 237 239 240 240 242 244
285 283 280 278 274 267 263 264 262 259 256 254 254 251 251 248 247 248 247 247 246 244 239 240 238 239 240 238 236 234 233 236 235 237 237 235 237 238 241 242 242 243 245
286 284 281 278 276 272 269 260 260 259 256 253 250 251 250 250 247 247 246 247 245 244 237 238 238 239 238 236 239 236 236 235 233 233 233 233 236 239 243 244 245 247 248
284 283 280 279 277 275 271 265 260 255 255 253 250 247 247 247 247 245 245 244 244 243 241 240 239 240 241 238 240 238 237 238 234 235 233 238 241 244 244 245 246 246 247
282 280 278 276 274 273 272 267 261 256 253 251 251 245 246 246 245 245 243 242 239 240 241 241 242 244 243 241 241 241 240 239 239 237 242 239 241 241 241 243 246 248 250
282 280 279 276 273 270 268 267 263 258 254 250 249 248 246 245 244 244 245 242 241 241 239 239 242 243 243 244 243 244 244 241 240 240 238 241 239 243 241 245 246 248 248
282 281 278 276 272 269 266 264 262 259 255 253 248 247 245 243 242 243 243 244 243 242 241 241 243 243 243 245 244 244 245 242 244 242 241 244 240 238 241 245 246 247 246
284 281 278 276 273 270 266 263 261 258 255 253 250 245 245 243 242 244 245 243 243 243 242 242 244 243 244 243 244 246 244 245 246 247 239 247 241 240 240 243 245 244 245
286 282 279 275 273 271 266 263 260 257 254 252 249 247 245 243 242 240 242 243 242 242 241 242 242 244 245 245 245 246 245 246 245 247 246 246 247 232 241 246 241 243 241
290 285 281 277 274 271 267 263 259 257 254 251 249 247 245 244 243 241 240 241 242 241 241 241 242 244 245 245 245 246 246 246 248 248 246 251 246 233 243 240 242 239 237
293 288 284 280 276 272 268 264 260 257 254 250 248 246 245 243 243 241 239 239 239 241 239 240 240 243 244 244 244 244 245 246 247 249 249 252 245 238 239 243 236 240 235
297 292 287 283 278 274 270 265 261 257 254 251 248 245 245 243 242 241 239 239 237 239 241 240 241 242 243 244 245 245 246 247 248 249 250 249 241 243 239 232 235 231 236
302 297 291 285 280 276 271 267 263 258 254 252 249 246 244 243 242 240 240 239 237 238 238 240 240 241 242 243 244 244 245 246 249 250 249 247 244 239 234 235 239 237 241
303 299 295 290 284 278 273 269 265 260 255 252 249 247 243 242 242 240 239 239 238 238 237 237 239 239 240 242 242 243 245 247 250 250 248 245 241 237 233 229 227 237 239
302 299 295 291 286 281 275 270 265 261 257 253 249 247 244 241 241 240 238 238 237 237 236 235 236 238 239 241 241 241 243 244 247 249 246 244 242 237 232 233 236 242 244
301 298 295 290 286 281 276 272 266 261 257 254 250 248 244 241 240 239 238 237 237 235 237 234 235 236 238 240 239 241 242 243 248 246 244 245 241 239 236 238 239 240 245
301 298 295 290 285 279 276 272 268 262 258 254 251 248 245 243 240 239 239 237 236 235 235 237 235 236 237 238 239 238 239 242 245 242 242 243 241 241 241 241 242 244 249
300 298 296 291 285 279 275 271 267 262 258 254 250 247 245 243 241 238 237 237 236 235 234 234 237 235 235 236 238 239 239 241 243 241 242 241 240 240 242 241 245 248 250
300 298 296 292 286 281 276 271 267 262 258 254 250 247 245 243 239 238 237 236 235 235 234 235 236 237 236 238 239 240 237 237 237 236 239 243 239 240 242 246 249 251 252
300 298 296 291 286 283 279 274 268 262 257 253 249 247 244 241 239 237 236 237 235 234 233 234 234 236 236 237 236 236 234 232 238 237 241 241 238 241 244 248 249 250 251
299 298 296 291 287 284 282 277 271 263 256 251 248 245 243 240 238 236 236 235 234 232 231 231 232 234 232 234 235 237 234 233 238 237 235 237 233 238 242 245 246 247 249